Back to catalog

SL-14 DEB

AlivePO
NORAD 45273·DEBRIS·🇷🇺 Russia

Launched Aug 15, 1991 from Plesetsk Cosmodrome

Loading…

Next Passes (next 24 hours)

TLE

FreshSource: Space-Track

Epoch: Sep 13, 2026, 17:12 UTC

1 45273U 91056K   26256.71687348  .00001277  00000-0  19697-2 0  9998
2 45273  82.5672 356.7126 0113668 257.7804 101.0587 13.48147848322851

Track SL-14 DEB in real time with AllMySat

Download on the App Store